Home > Weather > Zárate > Past weeks

Flag for Argentina Past Weather in Zárate, Buenos Aires, Argentina — Yesterday and Last 2 Weeks

Now
52 °F

Scattered clouds.


Feels Like: 51 °F
Forecast: 39 / 51 °F
Wind: 3 mph from Southwest

Location: Buenos Aires Airport

Current Time: Jul 27, 2016 at 4:15:28 PM

Latest Report: Jul 27, 2016 at 3:00 PM


Visibility: N/A

Pressure: 30.27 "Hg

Humidity: 58%

Dew Point: 37 °F

Location of ZárateLocation

Past Weather in Zárate — Graph

°F

Zárate Temperature Yesterday

Maximum temperature yesterday: 54 °F (at 12:00 AM)
Minimum temperature yesterday: 48 °F (at 11:00 PM)
Average temperature yesterday: 51 °F

High & Low Weather Summary for the Past Weeks

 TemperatureHumidityPressure
High59 °F (Jul 12, 4:00 PM)100% (Jul 14, 10:00 PM)30.42 "Hg (Jul 14, 10:00 PM)
Low37 °F (Jul 17, 7:00 AM)54% (Jul 15, 9:00 PM)29.68 "Hg (Jul 26, 6:00 AM)
Average50 °F78%30.13 "Hg
* Reported Jul 12 3:00 PM — Jul 27 3:00 PM, Zárate, Weather by CustomWeather, © 2016

Note: Actual official high and low records may vary slightly from our data, if they occured in-between our weather recording intervals... More about our weather records

Advertising

Zárate Weather History for the Previous 24 Hours

Scroll right to see more
 ConditionsComfort  
Time TempWeatherWind HumidityBarometerVisibility
3:00 PM
Wed, Jul 27
52 °FScattered clouds.3 mph58%30.27 "HgN/A
2:00 PM52 °FScattered clouds.3 mph62%30.27 "HgN/A
1:00 PM50 °FPartly sunny.5 mph67%30.30 "HgN/A
12:00 PM50 °FPartly sunny.N/A67%30.30 "HgN/A
11:00 AM48 °FPartly sunny.8 mph76%30.30 "HgN/A
10:00 AM46 °FPartly sunny.6 mph82%30.30 "HgN/A
9:00 AM46 °FPartly sunny.5 mph82%30.27 "HgN/A
8:00 AM43 °FScattered clouds.5 mph93%30.24 "HgN/A
7:00 AM45 °FPassing clouds.6 mph87%30.21 "HgN/A
6:00 AM45 °FClear.7 mph87%30.18 "Hg10 mi
5:00 AM45 °FClear.9 mph87%30.21 "Hg10 mi
4:00 AM45 °FClear.7 mph87%30.15 "Hg10 mi
3:00 AM46 °FClear.7 mph87%30.21 "Hg10 mi
2:00 AM46 °FClear.6 mph87%30.21 "Hg10 mi
1:00 AM46 °FClear.7 mph87%30.18 "Hg10 mi
12:00 AM48 °FClear.9 mph82%30.18 "Hg10 mi
11:00 PM
Tue, Jul 26
48 °FClear.7 mph87%30.15 "Hg10 mi
10:00 PM50 °FClear.8 mph76%30.12 "Hg10 mi
9:00 PM50 °FClear.8 mph76%30.04 "Hg10 mi
8:00 PM50 °FPartly cloudy.7 mph82%30.07 "HgN/A
7:00 PM50 °FMostly cloudy.9 mph88%30.04 "Hg6 mi
6:00 PM50 °FPartly cloudy.10 mph94%30.01 "Hg2 mi
5:00 PM50 °FDrizzle. Broken clouds.12 mph88%29.95 "Hg5 mi
4:00 PM50 °FDrizzle. Partly sunny.12 mph88%29.92 "Hg5 mi
Weather by CustomWeather, © 2016

See weather overviewHow to use our weather pages